Year,Month,Day,Hour,Minute,Value (Times are PST for temperature in C)
2007,09,28,00,00,9.50
2007,09,28,00,01,9.50
2007,09,28,00,02,9.50
2007,09,28,00,03,9.50
2007,09,28,00,04,9.50
2007,09,28,00,05,9.60
2007,09,28,00,06,9.60
2007,09,28,00,07,9.60
2007,09,28,00,08,9.60
2007,09,28,00,09,9.60
2007,09,28,00,10,9.60
2007,09,28,00,11,9.50
2007,09,28,00,12,9.50
2007,09,28,00,13,9.50
2007,09,28,00,14,9.50
2007,09,28,00,15,9.50
2007,09,28,00,16,9.40
2007,09,28,00,17,9.40
2007,09,28,00,18,9.40
2007,09,28,00,19,9.40
2007,09,28,00,20,9.40
2007,09,28,00,21,9.40
2007,09,28,00,22,9.30
2007,09,28,00,23,9.30
2007,09,28,00,24,9.20
2007,09,28,00,25,9.20
2007,09,28,00,26,9.20
2007,09,28,00,27,9.20
2007,09,28,00,28,9.20
2007,09,28,00,29,9.20
2007,09,28,00,30,9.20
2007,09,28,00,31,9.20
2007,09,28,00,32,9.20
2007,09,28,00,33,9.20
2007,09,28,00,34,9.20
2007,09,28,00,35,9.20
2007,09,28,00,36,9.20
2007,09,28,00,37,9.20
2007,09,28,00,38,9.20
2007,09,28,00,39,9.20
2007,09,28,00,40,9.20
2007,09,28,00,41,9.20
2007,09,28,00,42,9.20
2007,09,28,00,43,9.20
2007,09,28,00,44,9.20
2007,09,28,00,45,9.20
2007,09,28,00,46,9.20
2007,09,28,00,47,9.20
2007,09,28,00,48,9.30
2007,09,28,00,49,9.30
2007,09,28,00,50,9.30
2007,09,28,00,51,9.30
2007,09,28,00,52,9.30
2007,09,28,00,53,9.30
2007,09,28,00,54,9.40
2007,09,28,00,55,9.40
2007,09,28,00,56,9.40
2007,09,28,00,57,9.40
2007,09,28,00,58,9.40
2007,09,28,00,59,9.40
2007,09,28,01,00,9.40
2007,09,28,01,01,9.40
2007,09,28,01,02,9.40
2007,09,28,01,03,9.40
2007,09,28,01,04,9.40
2007,09,28,01,05,9.40
2007,09,28,01,06,9.40
2007,09,28,01,07,9.30
2007,09,28,01,08,9.30
2007,09,28,01,09,9.30
2007,09,28,01,10,9.30
2007,09,28,01,11,9.30
2007,09,28,01,12,9.30
2007,09,28,01,13,9.30
2007,09,28,01,14,9.30
2007,09,28,01,15,9.30
2007,09,28,01,16,9.30
2007,09,28,01,17,9.30
2007,09,28,01,18,9.30
2007,09,28,01,19,9.30
2007,09,28,01,20,9.40
2007,09,28,01,21,9.40
2007,09,28,01,22,9.40
2007,09,28,01,23,9.40
2007,09,28,01,24,9.40
2007,09,28,01,25,9.30
2007,09,28,01,26,9.30
2007,09,28,01,27,9.30
2007,09,28,01,28,9.30
2007,09,28,01,29,9.30
2007,09,28,01,30,9.30
2007,09,28,01,31,9.30
2007,09,28,01,32,9.30
2007,09,28,01,33,9.30
2007,09,28,01,34,9.30
2007,09,28,01,35,9.30
2007,09,28,01,36,9.30
2007,09,28,01,37,9.30
2007,09,28,01,38,9.20
2007,09,28,01,39,9.20
2007,09,28,01,40,9.20
2007,09,28,01,41,9.20
2007,09,28,01,42,9.20
2007,09,28,01,43,9.20
2007,09,28,01,44,9.20
2007,09,28,01,45,9.20
2007,09,28,01,46,9.20
2007,09,28,01,47,9.20
2007,09,28,01,48,9.30
2007,09,28,01,49,9.30
2007,09,28,01,50,9.30
2007,09,28,01,51,9.30
2007,09,28,01,52,9.40
2007,09,28,01,53,9.40
2007,09,28,01,54,9.30
2007,09,28,01,55,9.30
2007,09,28,01,56,9.30
2007,09,28,01,57,9.20
2007,09,28,01,58,9.20
2007,09,28,01,59,9.20
2007,09,28,02,00,9.20
2007,09,28,02,01,9.20
2007,09,28,02,02,9.20
2007,09,28,02,03,9.20
2007,09,28,02,04,9.20
2007,09,28,02,05,9.10
2007,09,28,02,06,9.10
2007,09,28,02,07,9.10
2007,09,28,02,08,9.00
2007,09,28,02,09,9.00
2007,09,28,02,10,8.90
2007,09,28,02,11,8.90
2007,09,28,02,12,8.80
2007,09,28,02,13,8.80
2007,09,28,02,14,8.70
2007,09,28,02,15,8.70
2007,09,28,02,16,8.70
2007,09,28,02,17,8.60
2007,09,28,02,18,8.60
2007,09,28,02,19,8.50
2007,09,28,02,20,8.50
2007,09,28,02,21,8.50
2007,09,28,02,22,8.50
2007,09,28,02,23,8.50
2007,09,28,02,24,8.50
2007,09,28,02,25,8.40
2007,09,28,02,26,8.40
2007,09,28,02,27,8.40
2007,09,28,02,28,8.40
2007,09,28,02,29,8.40
2007,09,28,02,30,8.40
2007,09,28,02,31,8.40
2007,09,28,02,32,8.50
2007,09,28,02,33,8.50
2007,09,28,02,34,8.60
2007,09,28,02,35,8.70
2007,09,28,02,36,8.80
2007,09,28,02,37,8.90
2007,09,28,02,38,9.00
2007,09,28,02,39,9.00
2007,09,28,02,40,9.00
2007,09,28,02,41,9.00
2007,09,28,02,42,9.00
2007,09,28,02,43,9.00
2007,09,28,02,44,9.00
2007,09,28,02,45,9.00
2007,09,28,02,46,8.90
2007,09,28,02,47,8.90
2007,09,28,02,48,8.90
2007,09,28,02,49,8.90
2007,09,28,02,50,8.90
2007,09,28,02,51,8.90
2007,09,28,02,52,8.90
2007,09,28,02,53,8.90
2007,09,28,02,54,8.90
2007,09,28,02,55,8.90
2007,09,28,02,56,8.90
2007,09,28,02,57,8.90
2007,09,28,02,58,8.80
2007,09,28,02,59,8.80
2007,09,28,03,00,8.80
2007,09,28,03,01,8.80
2007,09,28,03,02,8.70
2007,09,28,03,03,8.70
2007,09,28,03,04,8.70
2007,09,28,03,05,8.70
2007,09,28,03,06,8.60
2007,09,28,03,07,8.60
2007,09,28,03,08,8.50
2007,09,28,03,09,8.50
2007,09,28,03,10,8.40
2007,09,28,03,11,8.40
2007,09,28,03,12,8.40
2007,09,28,03,13,8.30
2007,09,28,03,14,8.30
2007,09,28,03,15,8.30
2007,09,28,03,16,8.30
2007,09,28,03,17,8.20
2007,09,28,03,18,8.20
2007,09,28,03,19,8.20
2007,09,28,03,20,8.20
2007,09,28,03,21,8.20
2007,09,28,03,22,8.30
2007,09,28,03,23,8.30
2007,09,28,03,24,8.30
2007,09,28,03,25,8.30
2007,09,28,03,26,8.40
2007,09,28,03,27,8.40
2007,09,28,03,28,8.40
2007,09,28,03,29,8.40
2007,09,28,03,30,8.40
2007,09,28,03,31,8.40
2007,09,28,03,32,8.40
2007,09,28,03,33,8.40
2007,09,28,03,34,8.40
2007,09,28,03,35,8.30
2007,09,28,03,36,8.30
2007,09,28,03,37,8.30
2007,09,28,03,38,8.30
2007,09,28,03,39,8.20
2007,09,28,03,40,8.20
2007,09,28,03,41,8.20
2007,09,28,03,42,8.20
2007,09,28,03,43,8.20
2007,09,28,03,44,8.20
2007,09,28,03,45,8.20
2007,09,28,03,46,8.10
2007,09,28,03,47,8.10
2007,09,28,03,48,8.10
2007,09,28,03,49,8.10
2007,09,28,03,50,8.10
2007,09,28,03,51,8.00
2007,09,28,03,52,8.00
2007,09,28,03,53,8.00
2007,09,28,03,54,8.00
2007,09,28,03,55,7.90
2007,09,28,03,56,7.90
2007,09,28,03,57,7.90
2007,09,28,03,58,7.90
2007,09,28,03,59,7.90
2007,09,28,04,00,7.90
2007,09,28,04,01,7.90
2007,09,28,04,02,7.90
2007,09,28,04,03,7.90
2007,09,28,04,04,7.80
2007,09,28,04,05,7.80
2007,09,28,04,06,7.80
2007,09,28,04,07,7.80
2007,09,28,04,08,7.80
2007,09,28,04,09,7.80
2007,09,28,04,10,7.80
2007,09,28,04,11,7.80
2007,09,28,04,12,7.80
2007,09,28,04,13,7.80
2007,09,28,04,14,7.80
2007,09,28,04,15,7.80
2007,09,28,04,16,7.80
2007,09,28,04,17,7.80
2007,09,28,04,18,7.80
2007,09,28,04,19,7.80
2007,09,28,04,20,7.80
2007,09,28,04,21,7.80
2007,09,28,04,22,7.80
2007,09,28,04,23,7.80
2007,09,28,04,24,7.70
2007,09,28,04,25,7.80
2007,09,28,04,26,7.80
2007,09,28,04,27,7.80
2007,09,28,04,28,7.80
2007,09,28,04,29,7.80
2007,09,28,04,30,7.80
2007,09,28,04,31,7.80
2007,09,28,04,32,7.80
2007,09,28,04,33,7.80
2007,09,28,04,34,7.80
2007,09,28,04,35,7.80
2007,09,28,04,36,7.80
2007,09,28,04,37,7.80
2007,09,28,04,38,7.80
2007,09,28,04,39,7.70
2007,09,28,04,40,7.70
2007,09,28,04,41,7.80
2007,09,28,04,42,7.80
2007,09,28,04,43,7.80
2007,09,28,04,44,7.80
2007,09,28,04,45,7.80
2007,09,28,04,46,7.80
2007,09,28,04,47,7.80
2007,09,28,04,48,7.80
2007,09,28,04,49,7.80
2007,09,28,04,50,7.80
2007,09,28,04,51,7.70
2007,09,28,04,52,7.70
2007,09,28,04,53,7.70
2007,09,28,04,54,7.70
2007,09,28,04,55,7.70
2007,09,28,04,56,7.70
2007,09,28,04,57,7.70
2007,09,28,04,58,7.60
2007,09,28,04,59,7.50
2007,09,28,05,00,7.40
2007,09,28,05,01,7.40
2007,09,28,05,02,7.30
2007,09,28,05,03,7.30
2007,09,28,05,04,7.30
2007,09,28,05,05,7.30
2007,09,28,05,06,7.40
2007,09,28,05,07,7.40
2007,09,28,05,08,7.50
2007,09,28,05,09,7.50
2007,09,28,05,10,7.60
2007,09,28,05,11,7.70
2007,09,28,05,12,7.70
2007,09,28,05,13,7.70
2007,09,28,05,14,7.70
2007,09,28,05,15,7.70
2007,09,28,05,16,7.70
2007,09,28,05,17,7.70
2007,09,28,05,18,7.60
2007,09,28,05,19,7.60
2007,09,28,05,20,7.50
2007,09,28,05,21,7.30
2007,09,28,05,22,7.20
2007,09,28,05,23,7.10
2007,09,28,05,24,7.00
2007,09,28,05,25,6.90
2007,09,28,05,26,6.80
2007,09,28,05,27,6.70
2007,09,28,05,28,6.70
2007,09,28,05,29,6.70
2007,09,28,05,30,6.70
2007,09,28,05,31,6.70
2007,09,28,05,32,6.70
2007,09,28,05,33,6.70
2007,09,28,05,34,6.70
2007,09,28,05,35,6.70
2007,09,28,05,36,6.60
2007,09,28,05,37,6.60
2007,09,28,05,38,6.50
2007,09,28,05,39,6.40
2007,09,28,05,40,6.40
2007,09,28,05,41,6.50
2007,09,28,05,42,6.50
2007,09,28,05,43,6.40
2007,09,28,05,44,6.50
2007,09,28,05,45,6.60
2007,09,28,05,46,6.60
2007,09,28,05,47,6.60
2007,09,28,05,48,6.60
2007,09,28,05,49,6.60
2007,09,28,05,50,6.60
2007,09,28,05,51,6.50
2007,09,28,05,52,6.40
2007,09,28,05,53,6.30
2007,09,28,05,54,6.30
2007,09,28,05,55,6.30
2007,09,28,05,56,6.30
2007,09,28,05,57,6.20
2007,09,28,05,58,6.20
2007,09,28,05,59,6.10
2007,09,28,06,00,6.10
2007,09,28,06,01,6.00
2007,09,28,06,02,6.00
2007,09,28,06,03,5.90
2007,09,28,06,04,5.90
2007,09,28,06,05,5.90
2007,09,28,06,06,5.90
2007,09,28,06,07,5.90
2007,09,28,06,08,5.80
2007,09,28,06,09,5.70
2007,09,28,06,10,5.70
2007,09,28,06,11,5.70
2007,09,28,06,12,5.70
2007,09,28,06,13,5.70
2007,09,28,06,14,5.60
2007,09,28,06,15,5.60
2007,09,28,06,16,5.60
2007,09,28,06,17,5.60
2007,09,28,06,18,5.60
2007,09,28,06,19,5.60
2007,09,28,06,20,5.60
2007,09,28,06,21,5.50
2007,09,28,06,22,5.50
2007,09,28,06,23,5.40
2007,09,28,06,24,5.40
2007,09,28,06,25,5.40
2007,09,28,06,26,5.40
2007,09,28,06,27,5.40
2007,09,28,06,28,5.40
2007,09,28,06,29,5.30
2007,09,28,06,30,5.30
2007,09,28,06,31,5.30
2007,09,28,06,32,5.30
2007,09,28,06,33,5.30
2007,09,28,06,34,5.30
2007,09,28,06,35,5.30
2007,09,28,06,36,5.30
2007,09,28,06,37,5.30
2007,09,28,06,38,5.30
2007,09,28,06,39,5.30
2007,09,28,06,40,5.30
2007,09,28,06,41,5.30
2007,09,28,06,42,5.30
2007,09,28,06,43,5.30
2007,09,28,06,44,5.20
2007,09,28,06,45,5.20
2007,09,28,06,46,5.20
2007,09,28,06,47,5.30
2007,09,28,06,48,5.20
2007,09,28,06,49,5.20
2007,09,28,06,50,5.20
2007,09,28,06,51,5.10
2007,09,28,06,52,5.10
2007,09,28,06,53,5.10
2007,09,28,06,54,5.00
2007,09,28,06,55,4.90
2007,09,28,06,56,4.90
2007,09,28,06,57,4.90
2007,09,28,06,58,4.80
2007,09,28,06,59,4.80
2007,09,28,07,00,4.80
2007,09,28,07,01,4.80
2007,09,28,07,02,4.80
2007,09,28,07,03,4.90
2007,09,28,07,04,4.90
2007,09,28,07,05,4.90
2007,09,28,07,06,4.90
2007,09,28,07,07,4.90
2007,09,28,07,08,4.90
2007,09,28,07,09,4.90
2007,09,28,07,10,5.00
2007,09,28,07,11,5.10
2007,09,28,07,12,5.10
2007,09,28,07,13,5.20
2007,09,28,07,14,5.30
2007,09,28,07,15,5.40
2007,09,28,07,16,5.50
2007,09,28,07,17,5.50
2007,09,28,07,18,5.60
2007,09,28,07,19,5.60
2007,09,28,07,20,5.60
2007,09,28,07,21,5.60
2007,09,28,07,22,5.50
2007,09,28,07,23,5.40
2007,09,28,07,24,5.40
2007,09,28,07,25,5.40
2007,09,28,07,26,5.50
2007,09,28,07,27,5.60
2007,09,28,07,28,5.60
2007,09,28,07,29,5.50
2007,09,28,07,30,5.50
2007,09,28,07,31,5.40
2007,09,28,07,32,5.40
2007,09,28,07,33,5.40
2007,09,28,07,34,5.40
2007,09,28,07,35,5.30
2007,09,28,07,36,5.30
2007,09,28,07,37,5.30
2007,09,28,07,38,5.30
2007,09,28,07,39,5.30
2007,09,28,07,40,5.30
2007,09,28,07,41,5.40
2007,09,28,07,42,5.40
2007,09,28,07,43,5.50
2007,09,28,07,44,5.50
2007,09,28,07,45,5.40
2007,09,28,07,46,5.40
2007,09,28,07,47,5.40
2007,09,28,07,48,5.30
2007,09,28,07,49,5.30
2007,09,28,07,50,5.30
2007,09,28,07,51,5.30
2007,09,28,07,52,5.30
2007,09,28,07,53,5.30
2007,09,28,07,54,5.30
2007,09,28,07,55,5.20
2007,09,28,07,56,5.20
2007,09,28,07,57,5.20
2007,09,28,07,58,5.30
2007,09,28,07,59,5.30
2007,09,28,08,00,5.30
2007,09,28,08,01,5.40
2007,09,28,08,02,5.50
2007,09,28,08,03,5.50
2007,09,28,08,04,5.60
2007,09,28,08,05,5.70
2007,09,28,08,06,5.70
2007,09,28,08,07,5.70
2007,09,28,08,08,5.70
2007,09,28,08,09,5.80
2007,09,28,08,10,5.90
2007,09,28,08,11,5.90
2007,09,28,08,12,6.00
2007,09,28,08,13,6.10
2007,09,28,08,14,6.10
2007,09,28,08,15,6.20
2007,09,28,08,16,6.20
2007,09,28,08,17,6.20
2007,09,28,08,18,6.20
2007,09,28,08,19,6.20
2007,09,28,08,20,6.20
2007,09,28,08,21,6.20
2007,09,28,08,22,6.20
2007,09,28,08,23,6.30
2007,09,28,08,24,6.30
2007,09,28,08,25,6.40
2007,09,28,08,26,6.50
2007,09,28,08,27,6.60
2007,09,28,08,28,6.70
2007,09,28,08,29,6.80
2007,09,28,08,30,7.00
2007,09,28,08,31,7.20
2007,09,28,08,32,7.30
2007,09,28,08,33,7.40
2007,09,28,08,34,7.50
2007,09,28,08,35,7.60
2007,09,28,08,36,7.70
2007,09,28,08,37,7.80
2007,09,28,08,38,7.80
2007,09,28,08,39,7.90
2007,09,28,08,40,7.90
2007,09,28,08,41,8.00
2007,09,28,08,42,8.00
2007,09,28,08,43,8.10
2007,09,28,08,44,8.20
2007,09,28,08,45,8.20
2007,09,28,08,46,8.30
2007,09,28,08,47,8.40
2007,09,28,08,48,8.40
2007,09,28,08,49,8.50
2007,09,28,08,50,8.50
2007,09,28,08,51,8.60
2007,09,28,08,52,8.60
2007,09,28,08,53,8.70
2007,09,28,08,54,8.70
2007,09,28,08,55,8.70
2007,09,28,08,56,8.70
2007,09,28,08,57,8.70
2007,09,28,08,58,8.70
2007,09,28,08,59,8.70
2007,09,28,09,00,8.80
2007,09,28,09,01,8.80
2007,09,28,09,02,8.80
2007,09,28,09,03,8.90
2007,09,28,09,04,8.90
2007,09,28,09,05,9.00
2007,09,28,09,06,9.00
2007,09,28,09,07,9.00
2007,09,28,09,08,9.10
2007,09,28,09,09,9.10
2007,09,28,09,10,9.10
2007,09,28,09,11,9.20
2007,09,28,09,12,9.20
2007,09,28,09,13,9.20
2007,09,28,09,14,9.20
2007,09,28,09,15,9.30
2007,09,28,09,16,9.30
2007,09,28,09,17,9.30
2007,09,28,09,18,9.30
2007,09,28,09,19,9.30
2007,09,28,09,20,9.40
2007,09,28,09,21,9.40
2007,09,28,09,22,9.40
2007,09,28,09,23,9.50
2007,09,28,09,24,9.60
2007,09,28,09,25,9.60
2007,09,28,09,26,9.60
2007,09,28,09,27,9.60
2007,09,28,09,28,9.70
2007,09,28,09,29,9.70
2007,09,28,09,30,9.70
2007,09,28,09,31,9.70
2007,09,28,09,32,9.70
2007,09,28,09,33,9.80
2007,09,28,09,34,9.80
2007,09,28,09,35,9.80
2007,09,28,09,36,9.80
2007,09,28,09,37,9.80
2007,09,28,09,38,9.80
2007,09,28,09,39,9.80
2007,09,28,09,40,9.90
2007,09,28,09,41,9.90
2007,09,28,09,42,9.90
2007,09,28,09,43,9.90
2007,09,28,09,44,9.90
2007,09,28,09,45,9.90
2007,09,28,09,46,9.90
2007,09,28,09,47,9.90
2007,09,28,09,48,9.90
2007,09,28,09,49,9.90
2007,09,28,09,50,10.00
2007,09,28,09,51,10.10
2007,09,28,09,52,10.10
2007,09,28,09,53,10.10
2007,09,28,09,54,10.10
2007,09,28,09,55,10.20
2007,09,28,09,56,10.20
2007,09,28,09,57,10.30
2007,09,28,09,58,10.30
2007,09,28,09,59,10.30
2007,09,28,10,00,10.30
2007,09,28,10,01,10.30
2007,09,28,10,02,10.40
2007,09,28,10,03,10.40
2007,09,28,10,04,10.40
2007,09,28,10,05,10.40
2007,09,28,10,06,10.40
2007,09,28,10,07,10.40
2007,09,28,10,08,10.40
2007,09,28,10,09,10.40
2007,09,28,10,10,10.40
2007,09,28,10,11,10.40
2007,09,28,10,12,10.40
2007,09,28,10,13,10.40
2007,09,28,10,14,10.40
2007,09,28,10,15,10.50
2007,09,28,10,16,10.60
2007,09,28,10,17,10.60
2007,09,28,10,18,10.60
2007,09,28,10,19,10.60
2007,09,28,10,20,10.70
2007,09,28,10,21,10.70
2007,09,28,10,22,10.70
2007,09,28,10,23,10.70
2007,09,28,10,24,10.70
2007,09,28,10,25,10.70
2007,09,28,10,26,10.70
2007,09,28,10,27,10.70
2007,09,28,10,28,10.80
2007,09,28,10,29,10.90
2007,09,28,10,30,10.90
2007,09,28,10,31,10.90
2007,09,28,10,32,10.90
2007,09,28,10,33,10.90
2007,09,28,10,34,10.90
2007,09,28,10,35,11.00
2007,09,28,10,36,11.10
2007,09,28,10,37,11.10
2007,09,28,10,38,11.20
2007,09,28,10,39,11.20
2007,09,28,10,40,11.20
2007,09,28,10,41,11.30
2007,09,28,10,42,11.30
2007,09,28,10,43,11.20
2007,09,28,10,44,11.20
2007,09,28,10,45,11.20
2007,09,28,10,46,11.30
2007,09,28,10,47,11.30
2007,09,28,10,48,11.40
2007,09,28,10,49,11.40
2007,09,28,10,50,11.40
2007,09,28,10,51,11.40
2007,09,28,10,52,11.40
2007,09,28,10,53,11.40
2007,09,28,10,54,11.40
2007,09,28,10,55,11.50
2007,09,28,10,56,11.60
2007,09,28,10,57,11.60
2007,09,28,10,58,11.60
2007,09,28,10,59,11.60
2007,09,28,11,00,11.70
2007,09,28,11,01,11.70
2007,09,28,11,02,11.70
2007,09,28,11,03,11.70
2007,09,28,11,04,11.70
2007,09,28,11,05,11.70
2007,09,28,11,06,11.80
2007,09,28,11,07,11.80
2007,09,28,11,08,11.80
2007,09,28,11,09,11.80
2007,09,28,11,10,11.80
2007,09,28,11,11,11.70
2007,09,28,11,12,11.70
2007,09,28,11,13,11.80
2007,09,28,11,14,11.80
2007,09,28,11,15,11.80
2007,09,28,11,16,11.80
2007,09,28,11,17,11.70
2007,09,28,11,18,11.70
2007,09,28,11,19,11.80
2007,09,28,11,20,11.80
2007,09,28,11,21,11.80
2007,09,28,11,22,11.90
2007,09,28,11,23,11.90
2007,09,28,11,24,11.90
2007,09,28,11,25,11.90
2007,09,28,11,26,12.00
2007,09,28,11,27,12.00
2007,09,28,11,28,12.00
2007,09,28,11,29,11.90
2007,09,28,11,30,11.90
2007,09,28,11,31,11.90
2007,09,28,11,32,11.90
2007,09,28,11,33,12.00
2007,09,28,11,34,12.00
2007,09,28,11,35,12.00
2007,09,28,11,36,12.00
2007,09,28,11,37,12.10
2007,09,28,11,38,12.10
2007,09,28,11,39,12.20
2007,09,28,11,40,12.30
2007,09,28,11,41,12.30
2007,09,28,11,42,12.30
2007,09,28,11,43,12.30
2007,09,28,11,44,12.30
2007,09,28,11,45,12.30
2007,09,28,11,46,12.30
2007,09,28,11,47,12.30
2007,09,28,11,48,12.30
2007,09,28,11,49,12.30
2007,09,28,11,50,12.30
2007,09,28,11,51,12.30
2007,09,28,11,52,12.30
2007,09,28,11,53,12.30
2007,09,28,11,54,12.30
2007,09,28,11,55,12.30
2007,09,28,11,56,12.40
2007,09,28,11,57,12.40
2007,09,28,11,58,12.40
2007,09,28,11,59,12.40
2007,09,28,12,00,12.40
2007,09,28,12,01,12.30
2007,09,28,12,02,12.30
2007,09,28,12,03,12.30
2007,09,28,12,04,12.30
2007,09,28,12,05,12.30
2007,09,28,12,06,12.30
2007,09,28,12,07,12.40
2007,09,28,12,08,12.40
2007,09,28,12,09,12.40
2007,09,28,12,10,12.40
2007,09,28,12,11,12.30
2007,09,28,12,12,12.30
2007,09,28,12,13,12.30
2007,09,28,12,14,12.40
2007,09,28,12,15,12.50
2007,09,28,12,16,12.50
2007,09,28,12,17,12.60
2007,09,28,12,18,12.70
2007,09,28,12,19,12.70
2007,09,28,12,20,12.70
2007,09,28,12,21,12.70
2007,09,28,12,22,12.70
2007,09,28,12,23,12.60
2007,09,28,12,24,12.60
2007,09,28,12,25,12.70
2007,09,28,12,26,12.70
2007,09,28,12,27,12.70
2007,09,28,12,28,12.70
2007,09,28,12,29,12.60
2007,09,28,12,30,12.70
2007,09,28,12,31,12.70
2007,09,28,12,32,12.70
2007,09,28,12,33,12.70
2007,09,28,12,34,12.70
2007,09,28,12,35,12.80
2007,09,28,12,36,12.80
2007,09,28,12,37,12.80
2007,09,28,12,38,12.80
2007,09,28,12,39,12.80
2007,09,28,12,40,12.90
2007,09,28,12,41,12.90
2007,09,28,12,42,12.90
2007,09,28,12,43,12.90
2007,09,28,12,44,13.00
2007,09,28,12,45,13.00
2007,09,28,12,46,13.10
2007,09,28,12,47,13.00
2007,09,28,12,48,13.00
2007,09,28,12,49,13.00
2007,09,28,12,50,13.00
2007,09,28,12,51,13.00
2007,09,28,12,52,12.90
2007,09,28,12,53,12.90
2007,09,28,12,54,12.90
2007,09,28,12,55,12.80
2007,09,28,12,56,12.70
2007,09,28,12,57,12.70
2007,09,28,12,58,12.70
2007,09,28,12,59,12.80
2007,09,28,13,00,12.80
2007,09,28,13,01,12.80
2007,09,28,13,02,12.80
2007,09,28,13,03,12.80
2007,09,28,13,04,12.80
2007,09,28,13,05,12.80
2007,09,28,13,06,12.80
2007,09,28,13,07,12.80
2007,09,28,13,08,12.80
2007,09,28,13,09,12.80
2007,09,28,13,10,12.70
2007,09,28,13,11,12.70
2007,09,28,13,12,12.80
2007,09,28,13,13,12.80
2007,09,28,13,14,12.90
2007,09,28,13,15,13.00
2007,09,28,13,16,13.00
2007,09,28,13,17,13.10
2007,09,28,13,18,13.20
2007,09,28,13,19,13.20
2007,09,28,13,20,13.10
2007,09,28,13,21,13.10
2007,09,28,13,22,13.10
2007,09,28,13,23,13.20
2007,09,28,13,24,13.20
2007,09,28,13,25,13.20
2007,09,28,13,26,13.30
2007,09,28,13,27,13.30
2007,09,28,13,28,13.30
2007,09,28,13,29,13.30
2007,09,28,13,30,13.30
2007,09,28,13,31,13.40
2007,09,28,13,32,13.50
2007,09,28,13,33,13.50
2007,09,28,13,34,13.50
2007,09,28,13,35,13.50
2007,09,28,13,36,13.50
2007,09,28,13,37,13.40
2007,09,28,13,38,13.30
2007,09,28,13,39,13.30
2007,09,28,13,40,13.30
2007,09,28,13,41,13.20
2007,09,28,13,42,13.10
2007,09,28,13,43,13.10
2007,09,28,13,44,13.10
2007,09,28,13,45,13.30
2007,09,28,13,46,13.30
2007,09,28,13,47,13.40
2007,09,28,13,48,13.40
2007,09,28,13,49,13.50
2007,09,28,13,50,13.50
2007,09,28,13,51,13.60
2007,09,28,13,52,13.60
2007,09,28,13,53,13.60
2007,09,28,13,54,13.70
2007,09,28,13,55,13.70
2007,09,28,13,56,13.80
2007,09,28,13,57,13.90
2007,09,28,13,58,13.90
2007,09,28,13,59,13.80
2007,09,28,14,00,13.70
2007,09,28,14,01,13.70
2007,09,28,14,02,13.60
2007,09,28,14,03,13.70
2007,09,28,14,04,13.70
2007,09,28,14,05,13.70
2007,09,28,14,06,13.70
2007,09,28,14,07,13.70
2007,09,28,14,08,13.70
2007,09,28,14,09,13.70
2007,09,28,14,10,13.70
2007,09,28,14,11,13.70
2007,09,28,14,12,13.60
2007,09,28,14,13,13.60
2007,09,28,14,14,13.70
2007,09,28,14,15,13.70
2007,09,28,14,16,13.70
2007,09,28,14,17,13.70
2007,09,28,14,18,13.80
2007,09,28,14,19,13.80
2007,09,28,14,20,13.80
2007,09,28,14,21,13.80
2007,09,28,14,22,13.80
2007,09,28,14,23,13.80
2007,09,28,14,24,13.70
2007,09,28,14,25,13.70
2007,09,28,14,26,13.70
2007,09,28,14,27,13.80
2007,09,28,14,28,13.80
2007,09,28,14,29,13.90
2007,09,28,14,30,14.00
2007,09,28,14,31,14.10
2007,09,28,14,32,14.10
2007,09,28,14,33,14.00
2007,09,28,14,34,14.00
2007,09,28,14,35,14.00
2007,09,28,14,36,14.00
2007,09,28,14,37,14.00
2007,09,28,14,38,14.00
2007,09,28,14,39,14.00
2007,09,28,14,40,14.00
2007,09,28,14,41,14.00
2007,09,28,14,42,14.00
2007,09,28,14,43,14.10
2007,09,28,14,44,14.10
2007,09,28,14,45,14.10
2007,09,28,14,46,14.20
2007,09,28,14,47,14.20
2007,09,28,14,48,14.20
2007,09,28,14,49,14.20
2007,09,28,14,50,14.20
2007,09,28,14,51,14.20
2007,09,28,14,52,14.20
2007,09,28,14,53,14.20
2007,09,28,14,54,14.20
2007,09,28,14,55,14.20
2007,09,28,14,56,14.10
2007,09,28,14,57,14.10
2007,09,28,14,58,14.00
2007,09,28,14,59,14.00
2007,09,28,15,00,13.90
2007,09,28,15,01,13.90
2007,09,28,15,02,14.00
2007,09,28,15,03,14.00
2007,09,28,15,04,14.10
2007,09,28,15,05,14.10
2007,09,28,15,06,14.10
2007,09,28,15,07,14.20
2007,09,28,15,08,14.20
2007,09,28,15,09,14.20
2007,09,28,15,10,14.20
2007,09,28,15,11,14.20
2007,09,28,15,12,14.20
2007,09,28,15,13,14.20
2007,09,28,15,14,14.20
2007,09,28,15,15,14.20
2007,09,28,15,16,14.20
2007,09,28,15,17,14.20
2007,09,28,15,18,14.10
2007,09,28,15,19,14.10
2007,09,28,15,20,14.10
2007,09,28,15,21,14.00
2007,09,28,15,22,14.00
2007,09,28,15,23,13.90
2007,09,28,15,24,13.90
2007,09,28,15,25,13.80
2007,09,28,15,26,13.80
2007,09,28,15,27,13.90
2007,09,28,15,28,13.90
2007,09,28,15,29,14.00
2007,09,28,15,30,14.10
2007,09,28,15,31,14.20
2007,09,28,15,32,14.20
2007,09,28,15,33,14.20
2007,09,28,15,34,14.20
2007,09,28,15,35,14.20
2007,09,28,15,36,14.20
2007,09,28,15,37,14.20
2007,09,28,15,38,14.20
2007,09,28,15,39,14.10
2007,09,28,15,40,14.00
2007,09,28,15,41,14.10
2007,09,28,15,42,14.20
2007,09,28,15,43,14.20
2007,09,28,15,44,14.20
2007,09,28,15,45,14.20
2007,09,28,15,46,14.20
2007,09,28,15,47,14.20
2007,09,28,15,48,14.20
2007,09,28,15,49,14.20
2007,09,28,15,50,14.30
2007,09,28,15,51,14.30
2007,09,28,15,52,14.30
2007,09,28,15,53,14.30
2007,09,28,15,54,14.30
2007,09,28,15,55,14.20
2007,09,28,15,56,14.20
2007,09,28,15,57,14.20
2007,09,28,15,58,14.20
2007,09,28,15,59,14.10
2007,09,28,16,00,14.00
2007,09,28,16,01,14.00
2007,09,28,16,02,13.90
2007,09,28,16,03,13.90
2007,09,28,16,04,13.90
2007,09,28,16,05,14.00
2007,09,28,16,06,14.10
2007,09,28,16,07,14.20
2007,09,28,16,08,14.20
2007,09,28,16,09,14.10
2007,09,28,16,10,14.00
2007,09,28,16,11,13.90
2007,09,28,16,12,13.90
2007,09,28,16,13,13.90
2007,09,28,16,14,13.90
2007,09,28,16,15,13.90
2007,09,28,16,16,13.90
2007,09,28,16,17,13.90
2007,09,28,16,18,13.90
2007,09,28,16,19,13.90
2007,09,28,16,20,13.90
2007,09,28,16,21,13.90
2007,09,28,16,22,14.00
2007,09,28,16,23,14.00
2007,09,28,16,24,14.10
2007,09,28,16,25,14.20
2007,09,28,16,26,14.20
2007,09,28,16,27,14.20
2007,09,28,16,28,14.20
2007,09,28,16,29,14.20
2007,09,28,16,30,14.20
2007,09,28,16,31,14.20
2007,09,28,16,32,14.30
2007,09,28,16,33,14.30
2007,09,28,16,34,14.20
2007,09,28,16,35,14.30
2007,09,28,16,36,14.30
2007,09,28,16,37,14.30
2007,09,28,16,38,14.20
2007,09,28,16,39,14.20
2007,09,28,16,40,14.20
2007,09,28,16,41,14.10
2007,09,28,16,42,14.10
2007,09,28,16,43,14.10
2007,09,28,16,44,14.10
2007,09,28,16,45,14.00
2007,09,28,16,46,13.90
2007,09,28,16,47,13.90
2007,09,28,16,48,13.90
2007,09,28,16,49,14.00
2007,09,28,16,50,14.00
2007,09,28,16,51,14.10
2007,09,28,16,52,14.20
2007,09,28,16,53,14.20
2007,09,28,16,54,14.20
2007,09,28,16,55,14.20
2007,09,28,16,56,14.20
2007,09,28,16,57,14.20
2007,09,28,16,58,14.20
2007,09,28,16,59,14.10
2007,09,28,17,00,14.00
2007,09,28,17,01,14.00
2007,09,28,17,02,14.00
2007,09,28,17,03,13.90
2007,09,28,17,04,13.90
2007,09,28,17,05,13.80
2007,09,28,17,06,13.90
2007,09,28,17,07,13.90
2007,09,28,17,08,13.90
2007,09,28,17,09,13.90
2007,09,28,17,10,13.90
2007,09,28,17,11,13.90
2007,09,28,17,12,13.90
2007,09,28,17,13,14.00
2007,09,28,17,14,14.00
2007,09,28,17,15,14.00
2007,09,28,17,16,13.90
2007,09,28,17,17,13.90
2007,09,28,17,18,14.00
2007,09,28,17,19,14.10
2007,09,28,17,20,14.20
2007,09,28,17,21,14.20
2007,09,28,17,22,14.10
2007,09,28,17,23,14.00
2007,09,28,17,24,14.00
2007,09,28,17,25,13.90
2007,09,28,17,26,13.80
2007,09,28,17,27,13.70
2007,09,28,17,28,13.60
2007,09,28,17,29,13.60
2007,09,28,17,30,13.50
2007,09,28,17,31,13.50
2007,09,28,17,32,13.50
2007,09,28,17,33,13.50
2007,09,28,17,34,13.50
2007,09,28,17,35,13.50
2007,09,28,17,36,13.60
2007,09,28,17,37,13.60
2007,09,28,17,38,13.60
2007,09,28,17,39,13.70
2007,09,28,17,40,13.70
2007,09,28,17,41,13.70
2007,09,28,17,42,13.70
2007,09,28,17,43,13.70
2007,09,28,17,44,13.70
2007,09,28,17,45,13.70